Flight Information

DEPARTURE
FULLERTON, CA
Elevation:
96
Runways:
6/24 - 3121x75 - ASPH-G
H1 - 37x37 - CONC
Active PE Departure:
24
Current PE ATIS:
J
Altimeter:
30.13
Remarks:
ATIS:
125.05 714-870-6222
Ground:
121.8
Tower:
119.1
DESTINATION
,
Elevation:
TPA:
1000 (est.)


6775.3 NM74° True-14° Var59° HDG

Flight Plan:
(click to file on line)

1. Type
2. Aircraft Identification
3. Aircraft Type / Special Equipment
4. True Airspeed
kts
5. Departure Airport
(ICAO code)
6. Arriving Airport
(ICAO code)
7. Cruising Altitude
ft
8. Alternate Airport
(ICAO code)
9. Route of Flight
10. Remarks


00:00:00 Departure ATIS: Destination ATIS:

Clearance Limit:
Route:
Altitude: Expect in minutes
Frequency:
Transponder: (7500 Hijack / 7600 Lost Comms / 7700 Emergency)


KFUL 091453Z AUTO 09004KT 10SM CLR 07/04 A3017 RMK AO2 SLP216 T00670039 53003
Time: 2022-12-09T14:53:00Z
1670651231
Winds: 90 @ 4 kts
Visibility: 10.0 sm
Clouds (AGL): CLR
Temperature: 6.7 C
Dew Point: 3.9 C
Pressure: 30.171259 in Hgbr


Notes:

Data extracted from FAA Digital Chart Supplement. Effective: 0901Z Thursday, 27 JAN 2022 to 0900z Thursday, 24 MAR 2022
Current ATIS data is provided courtisy of PilotEdge.